TimeCST,TemperatureF,Dew PointF,Humidity,Sea Level PressureIn,VisibilityMPH,Wind Direction,Wind SpeedMPH,Gust SpeedMPH,PrecipitationIn,Events,Conditions,WindDirDegrees,DateUTC
12:53 AM,64.0,59.0,84,30.05,10.0,South,11.5,-,N/A,,Clear,170,2012-11-10 06:53:00
1:53 AM,63.0,59.0,87,30.04,10.0,South,9.2,-,N/A,,Clear,170,2012-11-10 07:53:00
2:53 AM,62.1,59.0,90,30.03,10.0,South,10.4,-,N/A,,Clear,170,2012-11-10 08:53:00
3:53 AM,61.0,57.9,90,30.03,10.0,SSE,10.4,-,N/A,,Clear,150,2012-11-10 09:53:00
4:53 AM,60.1,57.9,93,30.04,8.0,SSE,9.2,-,N/A,,Clear,150,2012-11-10 10:53:00
5:53 AM,59.0,57.0,93,30.05,6.0,SSE,8.1,-,N/A,,Clear,150,2012-11-10 11:53:00
6:19 AM,60.8,57.2,88,30.06,6.0,SSE,8.1,-,N/A,,Scattered Clouds,150,2012-11-10 12:19:00
6:32 AM,60.8,57.2,88,30.06,6.0,SSE,9.2,-,N/A,,Mostly Cloudy,160,2012-11-10 12:32:00
6:53 AM,61.0,59.0,93,30.05,5.0,SSE,9.2,-,N/A,,Overcast,160,2012-11-10 12:53:00
7:36 AM,60.8,59.0,94,30.07,5.0,SSE,10.4,-,N/A,,Scattered Clouds,150,2012-11-10 13:36:00
7:53 AM,62.1,59.0,90,30.07,6.0,SSE,9.2,-,N/A,,Scattered Clouds,160,2012-11-10 13:53:00
8:53 AM,66.0,60.1,81,30.08,10.0,SSE,10.4,-,N/A,,Clear,150,2012-11-10 14:53:00
9:53 AM,71.1,60.1,68,30.07,10.0,SSE,12.7,18.4,N/A,,Clear,160,2012-11-10 15:53:00
10:53 AM,75.9,57.9,54,30.05,10.0,South,21.9,35.7,N/A,,Clear,180,2012-11-10 16:53:00
11:53 AM,75.9,59.0,56,30.02,10.0,South,19.6,25.3,N/A,,Scattered Clouds,180,2012-11-10 17:53:00
12:53 PM,79.0,57.0,47,29.98,10.0,South,19.6,25.3,N/A,,Scattered Clouds,180,2012-11-10 18:53:00
1:53 PM,81.0,57.0,44,29.96,10.0,South,18.4,26.5,N/A,,Mostly Cloudy,180,2012-11-10 19:53:00
2:53 PM,78.1,57.0,48,29.94,10.0,South,13.8,25.3,N/A,,Partly Cloudy,170,2012-11-10 20:53:00
3:53 PM,77.0,57.0,50,29.94,10.0,South,10.4,19.6,N/A,,Scattered Clouds,180,2012-11-10 21:53:00
4:53 PM,75.9,57.0,52,29.93,10.0,South,10.4,-,N/A,,Clear,170,2012-11-10 22:53:00
5:53 PM,72.0,57.0,59,29.94,10.0,SSE,6.9,-,N/A,,Clear,150,2012-11-10 23:53:00
6:53 PM,71.1,55.9,59,29.95,10.0,SSE,8.1,-,N/A,,Clear,150,2012-11-11 00:53:00
7:53 PM,72.0,55.0,55,29.93,10.0,SSE,16.1,25.3,N/A,,Clear,160,2012-11-11 01:53:00
8:53 PM,72.0,55.9,57,29.95,10.0,SSE,15.0,21.9,N/A,,Clear,160,2012-11-11 02:53:00
10:53 PM,69.1,59.0,70,29.93,10.0,SSE,12.7,23.0,N/A,,Clear,160,2012-11-11 04:53:00
11:53 PM,68.0,60.1,76,29.93,10.0,South,13.8,-,N/A,,Clear,170,2012-11-11 05:53:00